TimeEDT,TemperatureF,Dew PointF,Humidity,Sea Level PressureIn,VisibilityMPH,Wind Direction,Wind SpeedMPH,Gust SpeedMPH,PrecipitationIn,Events,Conditions,WindDirDegrees,DateUTC
12:53 AM,46.9,39.0,74,30.14,10.0,NW,4.6,-,N/A,,Mostly Cloudy,310,2012-10-11 04:53:00
1:53 AM,46.9,36.0,66,30.15,10.0,NW,9.2,-,N/A,,Scattered Clouds,310,2012-10-11 05:53:00
2:53 AM,46.0,33.1,61,30.17,10.0,NW,6.9,-,N/A,,Scattered Clouds,310,2012-10-11 06:53:00
3:53 AM,45.0,30.9,58,30.20,10.0,West,9.2,-,N/A,,Partly Cloudy,270,2012-10-11 07:53:00
4:53 AM,43.0,30.9,62,30.23,10.0,West,12.7,-,N/A,,Clear,260,2012-10-11 08:53:00
5:53 AM,41.0,30.9,67,30.26,10.0,West,6.9,-,N/A,,Clear,270,2012-10-11 09:53:00
6:53 AM,37.9,30.9,76,30.29,10.0,WNW,5.8,-,N/A,,Clear,300,2012-10-11 10:53:00
7:53 AM,42.1,30.9,65,30.30,10.0,West,6.9,-,N/A,,Clear,270,2012-10-11 11:53:00
8:53 AM,45.0,30.9,58,30.32,10.0,WNW,6.9,16.1,N/A,,Clear,290,2012-10-11 12:53:00
9:53 AM,48.0,30.0,50,30.32,10.0,WNW,10.4,-,N/A,,Clear,300,2012-10-11 13:53:00
10:53 AM,50.0,30.9,48,30.31,10.0,West,8.1,-,N/A,,Clear,280,2012-10-11 14:53:00
11:53 AM,52.0,30.0,43,30.31,10.0,West,12.7,18.4,N/A,,Clear,280,2012-10-11 15:53:00
12:53 PM,54.0,30.9,41,30.29,10.0,NW,11.5,18.4,N/A,,Clear,320,2012-10-11 16:53:00
1:53 PM,55.0,30.0,38,30.25,10.0,NW,5.8,17.3,N/A,,Clear,320,2012-10-11 17:53:00
2:53 PM,57.0,30.9,37,30.23,10.0,Variable,4.6,-,N/A,,Clear,0,2012-10-11 18:53:00
3:53 PM,57.9,30.0,35,30.22,10.0,South,8.1,-,N/A,,Clear,170,2012-10-11 19:53:00
4:53 PM,57.9,30.9,36,30.21,10.0,SSW,8.1,16.1,N/A,,Clear,210,2012-10-11 20:53:00
5:53 PM,57.9,33.1,39,30.20,10.0,South,9.2,-,N/A,,Clear,190,2012-10-11 21:53:00
7:53 PM,53.1,35.1,50,30.21,10.0,SE,6.9,-,N/A,,Clear,140,2012-10-11 23:53:00
9:53 PM,50.0,36.0,59,30.21,10.0,Variable,4.6,-,N/A,,Clear,0,2012-10-12 01:53:00
10:53 PM,48.9,36.0,61,30.19,10.0,SSW,5.8,-,N/A,,Clear,210,2012-10-12 02:53:00
11:53 PM,46.9,36.0,66,30.19,10.0,Calm,Calm,-,N/A,,Clear,0,2012-10-12 03:53:00